,,,PA_Meas_PMT16A,,PR_Meas_QMR101_102,,RH_Meas_QMH101,,SR_Meas_QMS101,,TA_Meas_QMH101,,GenWind,,GenWind,
date,time,status,PA,status,PR,status,RH,status,SR,status,TA,status,DirAvg,status,SpdAvg,
2010-10-16, 00:00:05,VALID,1000.22,VALID,0,VALID,93.913,VALID,0,VALID,23.7597,VALID,102,VALID,0.573828,
2010-10-16, 00:01:05,VALID,1000.17,VALID,0,VALID,93.9054,VALID,0,VALID,23.8006,VALID,102,VALID,0.270703,
2010-10-16, 00:02:05,VALID,1000.15,VALID,0,VALID,93.913,VALID,0,VALID,23.7793,VALID,106,VALID,0.771094,
2010-10-16, 00:03:05,VALID,1000.14,VALID,0,VALID,93.9206,VALID,0,VALID,23.7793,VALID,106,VALID,0.8375,
2010-10-16, 00:04:05,VALID,1000.13,VALID,0,VALID,93.9206,VALID,0,VALID,23.7988,VALID,106,VALID,0.621484,
2010-10-16, 00:05:05,VALID,1000.12,VALID,0,VALID,93.913,VALID,0,VALID,23.8006,VALID,106,VALID,0.558984,
2010-10-16, 00:06:05,VALID,1000.11,VALID,0,VALID,93.913,VALID,0,VALID,23.7793,VALID,134,VALID,0.860547,
2010-10-16, 00:07:05,VALID,1000.09,VALID,0,VALID,93.913,VALID,0,VALID,23.7793,VALID,134,VALID,0.579297,
2010-10-16, 00:08:05,VALID,1000.08,VALID,0,VALID,93.9054,VALID,0,VALID,23.797,VALID,134,VALID,0.755078,
2010-10-16, 00:09:05,VALID,1000.07,VALID,0,VALID,93.9054,VALID,0,VALID,23.797,VALID,134,VALID,0.700781,
2010-10-16, 00:10:05,VALID,1000.09,VALID,0,VALID,93.8977,VALID,0,VALID,23.8378,VALID,175,VALID,1.07148,
2010-10-16, 00:11:05,VALID,1000.05,VALID,0,VALID,93.9054,VALID,0,VALID,23.8165,VALID,175,VALID,0.998828,
2010-10-16, 00:12:05,VALID,1000.02,VALID,0,VALID,93.9206,VALID,0,VALID,23.797,VALID,160,VALID,1.40977,
2010-10-16, 00:13:05,VALID,1000.03,VALID,0,VALID,93.913,VALID,0,VALID,23.8183,VALID,156,VALID,1.12969,
2010-10-16, 00:14:05,VALID,1000,VALID,0,VALID,93.9054,VALID,0.112286,VALID,23.836,VALID,149,VALID,0.998047,
2010-10-16, 00:15:05,VALID,999.996,VALID,0,VALID,93.9283,VALID,0,VALID,23.8165,VALID,150,VALID,1.31484,
2010-10-16, 00:16:05,VALID,1000.03,VALID,0,VALID,93.9054,VALID,0,VALID,23.8378,VALID,148,VALID,0.603125,
2010-10-16, 00:17:05,VALID,999.992,VALID,0,VALID,93.9054,VALID,0,VALID,23.836,VALID,173,VALID,0.61875,
2010-10-16, 00:18:05,VALID,999.996,VALID,0,VALID,93.9054,VALID,0,VALID,23.875,VALID,198,VALID,0.475781,
2010-10-16, 00:19:05,VALID,999.955,VALID,0,VALID,93.8977,VALID,0.112286,VALID,23.875,VALID,198,VALID,0.314844,
2010-10-16, 00:20:05,VALID,999.938,VALID,0,VALID,93.913,VALID,0,VALID,23.875,VALID,198,VALID,0.153125,
2010-10-16, 00:21:05,VALID,999.906,VALID,0,VALID,93.8901,VALID,0,VALID,23.8768,VALID,198,VALID,0.183984,
2010-10-16, 00:22:05,VALID,999.903,VALID,0,VALID,93.8825,VALID,0,VALID,23.836,VALID,198,VALID,0.00429688,
2010-10-16, 00:23:05,VALID,999.876,VALID,0,VALID,93.8977,VALID,0,VALID,23.8573,VALID,198,VALID,0.366406,
2010-10-16, 00:24:05,VALID,999.874,VALID,0,VALID,93.8977,VALID,0,VALID,23.8378,VALID,170,VALID,0.867969,
2010-10-16, 00:25:05,VALID,999.842,VALID,0,VALID,93.913,VALID,0,VALID,23.7988,VALID,134,VALID,0.613672,
2010-10-16, 00:26:05,VALID,999.837,VALID,0,VALID,93.8901,VALID,0,VALID,23.797,VALID,134,VALID,0.76875,
2010-10-16, 00:27:05,VALID,999.812,VALID,0,VALID,93.9054,VALID,0,VALID,23.7579,VALID,134,VALID,0.203516,
2010-10-16, 00:28:05,VALID,999.815,VALID,0,VALID,93.8977,VALID,0,VALID,23.7775,VALID,201,VALID,0.681641,
2010-10-16, 00:29:05,VALID,999.803,VALID,0,VALID,93.8977,VALID,0,VALID,23.8165,VALID,264,VALID,0.573438,
2010-10-16, 00:30:05,VALID,999.788,VALID,0,VALID,93.9054,VALID,0,VALID,23.8183,VALID,264,VALID,0.2,
2010-10-16, 00:31:05,VALID,999.794,VALID,0,VALID,93.8977,VALID,0,VALID,23.797,VALID,264,VALID,0.0535156,
2010-10-16, 00:32:05,VALID,999.764,VALID,0,VALID,93.8977,VALID,0,VALID,23.7775,VALID,207,VALID,0.545703,
2010-10-16, 00:33:05,VALID,999.782,VALID,0,VALID,93.8825,VALID,0,VALID,23.7775,VALID,207,VALID,0.372656,
2010-10-16, 00:34:05,VALID,999.745,VALID,0,VALID,93.8901,VALID,0,VALID,23.7579,VALID,207,VALID,0.434375,
2010-10-16, 00:35:05,VALID,999.742,VALID,0,VALID,93.8901,VALID,0,VALID,23.7579,VALID,207,VALID,0.481641,
2010-10-16, 00:36:05,VALID,999.759,VALID,0,VALID,93.913,VALID,0,VALID,23.7775,VALID,151,VALID,0.511719,
2010-10-16, 00:37:05,VALID,999.775,VALID,0,VALID,93.8825,VALID,0,VALID,23.7402,VALID,130,VALID,0.398047,
2010-10-16, 00:38:05,VALID,999.762,VALID,0,VALID,93.9054,VALID,0,VALID,23.7189,VALID,130,VALID,0,
2010-10-16, 00:39:04,VALID,999.754,VALID,0,VALID,93.8901,VALID,0,VALID,23.7189,VALID,130,VALID,0.230859,
2010-10-16, 00:40:04,VALID,999.724,VALID,0,VALID,93.9054,VALID,0,VALID,23.7189,VALID,127,VALID,0.739844,
2010-10-16, 00:41:04,VALID,999.713,VALID,0,VALID,93.8901,VALID,0,VALID,23.7402,VALID,119,VALID,0.742969,
2010-10-16, 00:42:04,VALID,999.714,VALID,0,VALID,93.8901,VALID,0,VALID,23.7189,VALID,119,VALID,0.405859,
2010-10-16, 00:43:04,VALID,999.731,VALID,0,VALID,93.8977,VALID,0.112286,VALID,23.6994,VALID,119,VALID,0.264453,
2010-10-16, 00:44:04,VALID,999.708,VALID,0,VALID,93.9054,VALID,0,VALID,23.6799,VALID,119,VALID,0.237891,
2010-10-16, 00:45:04,VALID,999.7,VALID,0,VALID,93.8748,VALID,0,VALID,23.6799,VALID,119,VALID,0,
2010-10-16, 00:46:04,VALID,999.686,VALID,0,VALID,93.9054,VALID,0.112286,VALID,23.6799,VALID,119,VALID,0.392188,
2010-10-16, 00:47:04,VALID,999.675,VALID,0,VALID,93.8825,VALID,0,VALID,23.6604,VALID,120,VALID,0.795313,
2010-10-16, 00:48:04,VALID,999.662,VALID,0,VALID,93.8825,VALID,0,VALID,23.6604,VALID,120,VALID,0.494531,
2010-10-16, 00:49:04,VALID,999.65,VALID,0,VALID,93.8901,VALID,0,VALID,23.6604,VALID,120,VALID,0.0425781,
2010-10-16, 00:50:04,VALID,999.646,VALID,0,VALID,93.8748,VALID,0.112286,VALID,23.6604,VALID,120,VALID,0,
2010-10-16, 00:51:04,VALID,999.604,VALID,0,VALID,93.8748,VALID,0,VALID,23.6409,VALID,120,VALID,0,
2010-10-16, 00:52:04,VALID,999.631,VALID,0,VALID,93.8825,VALID,0,VALID,23.6409,VALID,120,VALID,0.448828,
2010-10-16, 00:53:04,VALID,999.632,VALID,0,VALID,93.8825,VALID,0,VALID,23.6427,VALID,360,VALID,0.924219,
2010-10-16, 00:54:04,VALID,999.654,VALID,0,VALID,93.8901,VALID,0,VALID,23.6036,VALID,349,VALID,0.722656,
2010-10-16, 00:55:04,VALID,999.623,VALID,0,VALID,93.8825,VALID,0,VALID,23.5841,VALID,349,VALID,0.419531,
2010-10-16, 00:56:04,VALID,999.569,VALID,0,VALID,93.8901,VALID,0,VALID,23.5451,VALID,349,VALID,0.569531,
2010-10-16, 00:57:04,VALID,999.579,VALID,0,VALID,93.8977,VALID,0,VALID,23.5451,VALID,349,VALID,0.629297,
2010-10-16, 00:58:04,VALID,999.608,VALID,0,VALID,93.8977,VALID,0,VALID,23.5256,VALID,349,VALID,0.526172,
2010-10-16, 00:59:04,VALID,999.609,VALID,0,VALID,93.8977,VALID,0,VALID,23.5256,VALID,349,VALID,0.369141,
2010-10-16, 01:00:04,VALID,999.565,VALID,0,VALID,93.8977,VALID,0,VALID,23.4671,VALID,349,VALID,0.352734,
2010-10-16, 01:01:04,VALID,999.573,VALID,0,VALID,93.8977,VALID,0,VALID,23.4866,VALID,349,VALID,0.120703,
2010-10-16, 01:02:04,VALID,999.567,VALID,0,VALID,93.8977,VALID,0,VALID,23.4475,VALID,349,VALID,0.158984,
2010-10-16, 01:03:04,VALID,999.565,VALID,0,VALID,93.8977,VALID,0,VALID,23.35,VALID,349,VALID,0.358984,
2010-10-16, 01:04:04,VALID,999.586,VALID,0,VALID,93.9283,VALID,0,VALID,23.4085,VALID,349,VALID,0.583984,
2010-10-16, 01:05:04,VALID,999.612,VALID,0,VALID,93.8977,VALID,0,VALID,23.4671,VALID,112,VALID,0.850781,
2010-10-16, 01:06:04,VALID,999.562,VALID,0,VALID,93.8977,VALID,0,VALID,23.4475,VALID,112,VALID,1.14023,
2010-10-16, 01:07:04,VALID,999.581,VALID,0,VALID,93.8977,VALID,0,VALID,23.428,VALID,114,VALID,0.804688,
2010-10-16, 01:08:04,VALID,999.539,VALID,0,VALID,93.8901,VALID,0,VALID,23.428,VALID,114,VALID,0.493359,
2010-10-16, 01:09:04,VALID,999.538,VALID,0,VALID,93.9054,VALID,0,VALID,23.4085,VALID,114,VALID,0.411328,
2010-10-16, 01:10:04,VALID,999.511,VALID,0,VALID,93.9054,VALID,0,VALID,23.428,VALID,114,VALID,0.590234,
2010-10-16, 01:11:04,VALID,999.457,VALID,0,VALID,93.8977,VALID,0,VALID,23.4475,VALID,114,VALID,0.703516,
2010-10-16, 01:12:04,VALID,999.469,VALID,0,VALID,93.9054,VALID,0,VALID,23.4475,VALID,114,VALID,0.553516,
2010-10-16, 01:13:04,VALID,999.445,VALID,0,VALID,93.8977,VALID,0,VALID,23.4671,VALID,177,VALID,1.20898,
2010-10-16, 01:14:04,VALID,999.412,VALID,0,VALID,93.8977,VALID,0,VALID,23.5256,VALID,164,VALID,1.21172,
2010-10-16, 01:15:04,VALID,999.419,VALID,0,VALID,93.8901,VALID,0,VALID,23.5451,VALID,150,VALID,1.15781,
2010-10-16, 01:16:04,VALID,999.424,VALID,0,VALID,93.8825,VALID,0,VALID,23.5646,VALID,150,VALID,0.357812,
2010-10-16, 01:17:04,VALID,999.416,VALID,0,VALID,93.8901,VALID,0,VALID,23.6036,VALID,209,VALID,0.794531,
2010-10-16, 01:18:04,VALID,999.382,VALID,0,VALID,93.8672,VALID,0,VALID,23.6232,VALID,208,VALID,0.278516,
2010-10-16, 01:19:04,VALID,999.411,VALID,0,VALID,93.8825,VALID,0,VALID,23.6427,VALID,208,VALID,0.215625,
2010-10-16, 01:20:04,VALID,999.377,VALID,0,VALID,93.8596,VALID,0,VALID,23.6427,VALID,135,VALID,0.663672,
2010-10-16, 01:21:04,VALID,999.37,VALID,0,VALID,93.8748,VALID,0,VALID,23.6232,VALID,134,VALID,0.646484,
2010-10-16, 01:22:04,VALID,999.377,VALID,0,VALID,93.8596,VALID,0,VALID,23.6622,VALID,175,VALID,0.708203,
2010-10-16, 01:23:04,VALID,999.389,VALID,0,VALID,93.8672,VALID,0,VALID,23.6427,VALID,163,VALID,0.358594,
2010-10-16, 01:24:04,VALID,999.351,VALID,0,VALID,93.852,VALID,0,VALID,23.6036,VALID,127,VALID,0.590625,
2010-10-16, 01:25:04,VALID,999.342,VALID,0,VALID,93.8596,VALID,0,VALID,23.5841,VALID,117,VALID,0.576563,
2010-10-16, 01:26:04,VALID,999.356,VALID,0,VALID,93.8672,VALID,0,VALID,23.5451,VALID,117,VALID,0.346875,
2010-10-16, 01:27:04,VALID,999.323,VALID,0,VALID,93.8596,VALID,0,VALID,23.5061,VALID,117,VALID,0.09375,
2010-10-16, 01:28:04,VALID,999.333,VALID,0,VALID,93.8672,VALID,0,VALID,23.4866,VALID,117,VALID,0.111328,
2010-10-16, 01:29:04,VALID,999.29,VALID,0,VALID,93.8901,VALID,0,VALID,23.4458,VALID,117,VALID,0.342187,
2010-10-16, 01:30:04,VALID,999.267,VALID,0,VALID,93.8825,VALID,0,VALID,23.4263,VALID,117,VALID,0.126953,
2010-10-16, 01:31:04,VALID,999.256,VALID,0,VALID,93.8672,VALID,0,VALID,23.4671,VALID,117,VALID,0.25,
2010-10-16, 01:32:04,VALID,999.25,VALID,0,VALID,93.8672,VALID,0,VALID,23.4475,VALID,117,VALID,0.317969,
2010-10-16, 01:33:04,VALID,999.188,VALID,0,VALID,93.8901,VALID,0,VALID,23.4458,VALID,117,VALID,0.202734,
2010-10-16, 01:34:04,VALID,999.187,VALID,0,VALID,93.8672,VALID,0,VALID,23.4671,VALID,117,VALID,0.354688,
2010-10-16, 01:35:04,VALID,999.139,VALID,0,VALID,93.8901,VALID,0,VALID,23.4475,VALID,117,VALID,0.230469,
2010-10-16, 01:36:04,VALID,999.103,VALID,0,VALID,93.852,VALID,0,VALID,23.4458,VALID,117,VALID,0.132031,
2010-10-16, 01:37:04,VALID,999.079,VALID,0,VALID,93.852,VALID,0,VALID,23.4475,VALID,117,VALID,0.108984,
2010-10-16, 01:38:04,VALID,999.073,VALID,0,VALID,93.8825,VALID,0,VALID,23.4067,VALID,117,VALID,0.160156,
2010-10-16, 01:39:04,VALID,999.051,VALID,0,VALID,93.8748,VALID,0,VALID,23.428,VALID,117,VALID,0.304297,
2010-10-16, 01:40:04,VALID,999.072,VALID,0,VALID,93.8901,VALID,0,VALID,23.4067,VALID,117,VALID,0.446875,
2010-10-16, 01:41:04,VALID,999.049,VALID,0,VALID,93.8596,VALID,0,VALID,23.4067,VALID,117,VALID,0.575781,
2010-10-16, 01:42:04,VALID,999.027,VALID,0,VALID,93.8748,VALID,0,VALID,23.3872,VALID,117,VALID,0.5375,
2010-10-16, 01:43:04,VALID,998.99,VALID,0,VALID,93.8825,VALID,0,VALID,23.3677,VALID,27,VALID,0.733984,
2010-10-16, 01:44:04,VALID,998.987,VALID,0,VALID,93.8748,VALID,0,VALID,23.3695,VALID,24,VALID,0.653516,
2010-10-16, 01:45:04,VALID,999.004,VALID,0,VALID,93.8672,VALID,0,VALID,23.3287,VALID,24,VALID,0.757813,
2010-10-16, 01:46:04,VALID,999.012,VALID,0,VALID,93.8672,VALID,0,VALID,23.2915,VALID,24,VALID,0.723828,
2010-10-16, 01:47:04,VALID,999.016,VALID,0,VALID,93.852,VALID,0,VALID,23.2702,VALID,24,VALID,0.600781,
2010-10-16, 01:48:04,VALID,999.022,VALID,0,VALID,93.8825,VALID,0,VALID,23.2524,VALID,24,VALID,0.475,
2010-10-16, 01:49:04,VALID,999.017,VALID,0,VALID,93.8825,VALID,0,VALID,23.2329,VALID,24,VALID,0.555859,
2010-10-16, 01:50:04,VALID,999.046,VALID,0,VALID,93.8825,VALID,0,VALID,23.1939,VALID,42,VALID,0.804688,
2010-10-16, 01:51:04,VALID,999.036,VALID,0,VALID,93.8825,VALID,0,VALID,23.1531,VALID,47,VALID,1.01758,
2010-10-16, 01:52:04,VALID,999.042,VALID,0,VALID,93.8901,VALID,0,VALID,23.1939,VALID,50,VALID,0.956641,
2010-10-16, 01:53:04,VALID,999.081,VALID,0,VALID,93.8748,VALID,0,VALID,23.1744,VALID,60,VALID,0.951172,
2010-10-16, 01:54:04,VALID,999.134,VALID,0,VALID,93.8901,VALID,0,VALID,23.1744,VALID,69,VALID,1.02305,
2010-10-16, 01:55:04,VALID,999.088,VALID,0,VALID,93.8748,VALID,0,VALID,23.1744,VALID,77,VALID,0.928516,
2010-10-16, 01:56:04,VALID,999.17,VALID,0,VALID,93.8825,VALID,0,VALID,23.1726,VALID,88,VALID,0.952734,
2010-10-16, 01:57:04,VALID,999.148,VALID,0,VALID,93.8748,VALID,0,VALID,23.1744,VALID,92,VALID,0.914453,
2010-10-16, 01:58:04,VALID,999.134,VALID,0,VALID,93.8825,VALID,0,VALID,23.1939,VALID,97,VALID,0.747656,
2010-10-16, 01:59:04,VALID,999.186,VALID,0,VALID,93.8825,VALID,0,VALID,23.1531,VALID,97,VALID,0.623438,
2010-10-16, 02:00:04,VALID,999.158,VALID,0,VALID,93.8672,VALID,0,VALID,23.1531,VALID,97,VALID,0.318359,
2010-10-16, 02:01:04,VALID,999.155,VALID,0,VALID,93.8901,VALID,0,VALID,23.1744,VALID,97,VALID,0.0308594,
2010-10-16, 02:02:04,VALID,999.145,VALID,0,VALID,93.8825,VALID,0,VALID,23.1354,VALID,97,VALID,0,
2010-10-16, 02:03:04,VALID,999.143,VALID,0,VALID,93.8748,VALID,0,VALID,23.1354,VALID,97,VALID,0,
2010-10-16, 02:04:04,VALID,999.111,VALID,0,VALID,93.8748,VALID,0,VALID,23.1141,VALID,97,VALID,0,
2010-10-16, 02:05:04,VALID,999.135,VALID,0,VALID,93.8596,VALID,0,VALID,23.1549,VALID,97,VALID,0.0582031,
2010-10-16, 02:06:04,VALID,999.129,VALID,0,VALID,93.8748,VALID,0,VALID,23.1141,VALID,20,VALID,0.505859,
2010-10-16, 02:07:04,VALID,999.123,VALID,0,VALID,93.8748,VALID,0,VALID,23.0556,VALID,2,VALID,0.735547,
2010-10-16, 02:08:04,VALID,999.094,VALID,0,VALID,93.8901,VALID,0,VALID,23.0573,VALID,344,VALID,0.85625,
2010-10-16, 02:09:04,VALID,999.096,VALID,0,VALID,93.8901,VALID,0,VALID,23.0361,VALID,344,VALID,0.663281,
2010-10-16, 02:10:04,VALID,999.108,VALID,0,VALID,93.8901,VALID,0,VALID,23.0769,VALID,344,VALID,0.677734,
2010-10-16, 02:11:04,VALID,999.1,VALID,0,VALID,93.8825,VALID,0,VALID,23.1354,VALID,344,VALID,0.553125,
2010-10-16, 02:12:04,VALID,999.099,VALID,0,VALID,93.8748,VALID,0,VALID,23.1336,VALID,344,VALID,0.529297,
2010-10-16, 02:13:04,VALID,999.107,VALID,0,VALID,93.8748,VALID,0,VALID,23.1744,VALID,344,VALID,0.607422,
2010-10-16, 02:14:04,VALID,999.154,VALID,0,VALID,93.8825,VALID,0,VALID,23.1549,VALID,344,VALID,0.578906,
2010-10-16, 02:15:04,VALID,999.104,VALID,0,VALID,93.8672,VALID,0,VALID,23.1744,VALID,41,VALID,0.605469,
2010-10-16, 02:16:04,VALID,999.11,VALID,0,VALID,93.8825,VALID,0,VALID,23.1744,VALID,41,VALID,0.891406,
2010-10-16, 02:17:04,VALID,999.061,VALID,0,VALID,93.8748,VALID,0,VALID,23.1141,VALID,41,VALID,0.841406,
2010-10-16, 02:18:04,VALID,999.046,VALID,0,VALID,93.852,VALID,0,VALID,23.0964,VALID,40,VALID,0.766406,
2010-10-16, 02:19:04,VALID,999.022,VALID,0,VALID,93.8672,VALID,0,VALID,23.0378,VALID,358,VALID,1.10273,
2010-10-16, 02:20:04,VALID,999.039,VALID,0,VALID,93.8672,VALID,0,VALID,22.9971,VALID,312,VALID,0.916797,
2010-10-16, 02:21:04,VALID,999.019,VALID,0,VALID,93.8748,VALID,0,VALID,23.0361,VALID,296,VALID,0.917578,
2010-10-16, 02:22:04,VALID,998.996,VALID,0,VALID,93.8748,VALID,0,VALID,23.0964,VALID,285,VALID,0.645312,
2010-10-16, 02:23:04,VALID,998.985,VALID,0,VALID,93.8367,VALID,0,VALID,23.1159,VALID,285,VALID,0.509375,
2010-10-16, 02:24:04,VALID,998.981,VALID,0,VALID,93.8672,VALID,0,VALID,23.0964,VALID,14,VALID,0.677344,
2010-10-16, 02:25:04,VALID,998.978,VALID,0,VALID,93.8596,VALID,0,VALID,23.0769,VALID,52,VALID,0.787891,
2010-10-16, 02:26:04,VALID,998.958,VALID,0,VALID,93.8443,VALID,0,VALID,23.0183,VALID,51,VALID,0.251953,
2010-10-16, 02:27:04,VALID,998.972,VALID,0,VALID,93.8672,VALID,0,VALID,22.9988,VALID,51,VALID,0.244922,
2010-10-16, 02:28:04,VALID,998.98,VALID,0,VALID,93.8443,VALID,0,VALID,22.9598,VALID,51,VALID,0.4,
2010-10-16, 02:29:04,VALID,998.969,VALID,0,VALID,93.852,VALID,0,VALID,22.9013,VALID,51,VALID,0.0773437,
2010-10-16, 02:30:04,VALID,998.972,VALID,0,VALID,93.852,VALID,0,VALID,22.8818,VALID,51,VALID,0.359375,
2010-10-16, 02:31:04,VALID,998.936,VALID,0,VALID,93.852,VALID,0,VALID,22.9208,VALID,60,VALID,0.708594,
2010-10-16, 02:32:04,VALID,998.887,VALID,0,VALID,93.8596,VALID,0,VALID,22.9988,VALID,87,VALID,1.23984,
2010-10-16, 02:33:04,VALID,998.883,VALID,0,VALID,93.8596,VALID,0,VALID,23.0964,VALID,91,VALID,0.969141,
2010-10-16, 02:34:04,VALID,998.868,VALID,0,VALID,93.8138,VALID,0,VALID,23.1549,VALID,91,VALID,1.16875,
2010-10-16, 02:35:04,VALID,998.839,VALID,0,VALID,93.8214,VALID,0,VALID,23.1549,VALID,91,VALID,0.675391,
2010-10-16, 02:36:04,VALID,998.865,VALID,0,VALID,93.7985,VALID,0,VALID,23.1549,VALID,91,VALID,0.540234,
2010-10-16, 02:37:04,VALID,998.864,VALID,0,VALID,93.7909,VALID,0,VALID,23.1336,VALID,91,VALID,0.398438,
2010-10-16, 02:38:04,VALID,998.835,VALID,0,VALID,93.7909,VALID,0,VALID,23.1744,VALID,91,VALID,0.592969,
2010-10-16, 02:39:04,VALID,998.826,VALID,0,VALID,93.7757,VALID,0,VALID,23.1549,VALID,54,VALID,1.07383,
2010-10-16, 02:40:04,VALID,998.84,VALID,0,VALID,93.768,VALID,0,VALID,23.1744,VALID,60,VALID,0.817578,
2010-10-16, 02:41:04,VALID,998.871,VALID,0,VALID,93.7451,VALID,0,VALID,23.1354,VALID,57,VALID,0.728125,
2010-10-16, 02:42:04,VALID,998.874,VALID,0,VALID,93.7528,VALID,0,VALID,23.1354,VALID,45,VALID,0.667188,
2010-10-16, 02:43:04,VALID,998.934,VALID,0,VALID,93.7375,VALID,0,VALID,23.1176,VALID,44,VALID,0.435547,
2010-10-16, 02:44:04,VALID,998.954,VALID,0,VALID,93.7375,VALID,0,VALID,23.0964,VALID,309,VALID,0.740234,
2010-10-16, 02:45:04,VALID,998.958,VALID,0,VALID,93.7146,VALID,0,VALID,23.1159,VALID,301,VALID,0.572266,
2010-10-16, 02:46:04,VALID,998.955,VALID,0,VALID,93.7146,VALID,0,VALID,23.1762,VALID,339,VALID,0.59375,
2010-10-16, 02:47:04,VALID,998.916,VALID,0,VALID,93.707,VALID,0,VALID,23.1354,VALID,58,VALID,1.0668,
2010-10-16, 02:48:04,VALID,998.91,VALID,0,VALID,93.6765,VALID,0,VALID,23.1549,VALID,86,VALID,1.52227,
2010-10-16, 02:49:04,VALID,998.89,VALID,0,VALID,93.6612,VALID,0,VALID,23.1549,VALID,80,VALID,1.73281,
2010-10-16, 02:50:04,VALID,998.868,VALID,0,VALID,93.6231,VALID,0,VALID,23.1744,VALID,75,VALID,2.03086,
2010-10-16, 02:51:04,VALID,998.913,VALID,0,VALID,93.562,VALID,0,VALID,23.2117,VALID,82,VALID,0.529688,
2010-10-16, 02:52:04,VALID,998.898,VALID,0,VALID,93.501,VALID,0,VALID,23.2134,VALID,237,VALID,0.604297,
2010-10-16, 02:53:04,VALID,998.899,VALID,0,VALID,93.4552,VALID,0,VALID,23.2134,VALID,237,VALID,0.599609,
2010-10-16, 02:54:04,VALID,998.89,VALID,0,VALID,93.4323,VALID,0,VALID,23.2329,VALID,307,VALID,0.992188,
2010-10-16, 02:55:04,VALID,998.876,VALID,0,VALID,93.3789,VALID,0,VALID,23.2542,VALID,331,VALID,0.978125,
2010-10-16, 02:56:04,VALID,998.886,VALID,0,VALID,93.3331,VALID,0,VALID,23.2134,VALID,356,VALID,0.297266,
2010-10-16, 02:57:04,VALID,998.862,VALID,0,VALID,93.3103,VALID,0,VALID,23.1939,VALID,356,VALID,0.465234,
2010-10-16, 02:58:04,VALID,998.838,VALID,0,VALID,93.2416,VALID,0,VALID,23.1744,VALID,356,VALID,0.392578,
2010-10-16, 02:59:04,VALID,998.846,VALID,0,VALID,93.1882,VALID,0,VALID,23.1549,VALID,356,VALID,0.180078,
2010-10-16, 03:00:04,VALID,998.791,VALID,0,VALID,93.1424,VALID,0,VALID,23.1159,VALID,356,VALID,0.223047,
2010-10-16, 03:01:04,VALID,998.791,VALID,0,VALID,93.1195,VALID,0,VALID,23.0981,VALID,356,VALID,0.0113281,
2010-10-16, 03:02:04,VALID,998.782,VALID,0,VALID,93.089,VALID,0,VALID,23.0964,VALID,356,VALID,0.302734,
2010-10-16, 03:03:04,VALID,998.802,VALID,0,VALID,93.0661,VALID,0,VALID,23.0769,VALID,342,VALID,0.869531,
2010-10-16, 03:04:04,VALID,998.784,VALID,0,VALID,93.0737,VALID,0,VALID,23.0769,VALID,342,VALID,0.967188,
2010-10-16, 03:05:04,VALID,998.794,VALID,0,VALID,93.0508,VALID,0,VALID,23.0786,VALID,342,VALID,0.775781,
2010-10-16, 03:06:04,VALID,998.818,VALID,0,VALID,93.0585,VALID,0,VALID,23.0378,VALID,342,VALID,0.33125,
2010-10-16, 03:07:04,VALID,998.808,VALID,0,VALID,93.0508,VALID,0,VALID,23.0573,VALID,342,VALID,0.596094,
2010-10-16, 03:08:04,VALID,998.822,VALID,0,VALID,93.0661,VALID,0,VALID,23.0769,VALID,342,VALID,0.696094,
2010-10-16, 03:09:04,VALID,998.778,VALID,0,VALID,93.089,VALID,0,VALID,23.1159,VALID,54,VALID,0.951172,
2010-10-16, 03:10:04,VALID,998.756,VALID,0,VALID,93.0966,VALID,0,VALID,23.1371,VALID,79,VALID,1.44648,
2010-10-16, 03:11:04,VALID,998.756,VALID,0,VALID,93.0432,VALID,0,VALID,23.1354,VALID,72,VALID,1.05313,
2010-10-16, 03:12:04,VALID,998.77,VALID,0,VALID,92.9364,VALID,0,VALID,23.1176,VALID,72,VALID,0.502734,
2010-10-16, 03:13:04,VALID,998.77,VALID,0,VALID,92.8754,VALID,0,VALID,23.0573,VALID,72,VALID,0.401172,
2010-10-16, 03:14:04,VALID,998.806,VALID,0,VALID,92.822,VALID,0,VALID,23.0769,VALID,26,VALID,0.587891,
2010-10-16, 03:15:04,VALID,998.773,VALID,0,VALID,92.8143,VALID,0,VALID,23.0573,VALID,26,VALID,0.755469,
2010-10-16, 03:16:04,VALID,998.792,VALID,0,VALID,92.7914,VALID,0,VALID,23.0591,VALID,26,VALID,0.462891,
2010-10-16, 03:17:04,VALID,998.816,VALID,0,VALID,92.7838,VALID,0,VALID,23.0591,VALID,26,VALID,0.143359,
2010-10-16, 03:18:04,VALID,998.805,VALID,0,VALID,92.7838,VALID,0,VALID,23.0378,VALID,26,VALID,0.351563,
2010-10-16, 03:19:04,VALID,998.816,VALID,0,VALID,92.7914,VALID,0,VALID,23.0591,VALID,26,VALID,0.00703125,
2010-10-16, 03:20:04,VALID,998.811,VALID,0,VALID,92.8143,VALID,0,VALID,23.0183,VALID,26,VALID,0.502344,
2010-10-16, 03:21:04,VALID,998.792,VALID,0,VALID,92.8448,VALID,0,VALID,22.9988,VALID,26,VALID,0.340234,
2010-10-16, 03:22:04,VALID,998.799,VALID,0,VALID,92.8601,VALID,0,VALID,22.9988,VALID,26,VALID,0.198437,
2010-10-16, 03:23:04,VALID,998.741,VALID,0,VALID,92.883,VALID,0,VALID,22.9988,VALID,26,VALID,0.182422,
2010-10-16, 03:24:04,VALID,998.733,VALID,0,VALID,92.9288,VALID,0,VALID,22.9776,VALID,26,VALID,0.410937,
2010-10-16, 03:25:04,VALID,998.734,VALID,0,VALID,92.9669,VALID,0,VALID,23.0006,VALID,26,VALID,0.4375,
2010-10-16, 03:26:04,VALID,998.714,VALID,0,VALID,92.9974,VALID,0,VALID,22.9988,VALID,26,VALID,0.499219,
2010-10-16, 03:27:04,VALID,998.72,VALID,0,VALID,93.028,VALID,0,VALID,22.9988,VALID,26,VALID,0.0492188,
2010-10-16, 03:28:04,VALID,998.732,VALID,0,VALID,93.028,VALID,0,VALID,22.9403,VALID,26,VALID,0.0046875,
2010-10-16, 03:29:04,VALID,998.727,VALID,0,VALID,93.0203,VALID,0,VALID,22.9208,VALID,26,VALID,0.342578,
2010-10-16, 03:30:04,VALID,998.76,VALID,0,VALID,93.0356,VALID,0,VALID,22.9013,VALID,26,VALID,0.230469,
2010-10-16, 03:31:04,VALID,998.776,VALID,0,VALID,93.0585,VALID,0,VALID,22.8818,VALID,26,VALID,0.332422,
2010-10-16, 03:32:04,VALID,998.758,VALID,0,VALID,93.0585,VALID,0,VALID,22.8623,VALID,26,VALID,0.335938,
2010-10-16, 03:33:04,VALID,998.793,VALID,0,VALID,93.0737,VALID,0,VALID,22.8427,VALID,26,VALID,0.423828,
2010-10-16, 03:34:04,VALID,998.809,VALID,0,VALID,93.0966,VALID,0,VALID,22.8427,VALID,26,VALID,0.325391,
2010-10-16, 03:35:04,VALID,998.829,VALID,0,VALID,93.1195,VALID,0,VALID,22.8037,VALID,26,VALID,0.366797,
2010-10-16, 03:36:04,VALID,998.819,VALID,0,VALID,93.1424,VALID,0,VALID,22.8037,VALID,26,VALID,0.517969,
2010-10-16, 03:37:04,VALID,998.784,VALID,0,VALID,93.1424,VALID,0,VALID,22.8037,VALID,26,VALID,0.595312,
2010-10-16, 03:38:04,VALID,998.764,VALID,0,VALID,93.1805,VALID,0.112286,VALID,22.802,VALID,26,VALID,0.495313,
2010-10-16, 03:39:04,VALID,998.768,VALID,0,VALID,93.2034,VALID,0,VALID,22.802,VALID,26,VALID,0.0742188,
2010-10-16, 03:40:04,VALID,998.777,VALID,0,VALID,93.2034,VALID,0.112286,VALID,22.7825,VALID,26,VALID,0,
2010-10-16, 03:41:04,VALID,998.746,VALID,0,VALID,93.2263,VALID,0.112286,VALID,22.802,VALID,26,VALID,0.319141,
2010-10-16, 03:42:04,VALID,998.782,VALID,0,VALID,93.2568,VALID,0.112286,VALID,22.802,VALID,26,VALID,0.283984,
2010-10-16, 03:43:04,VALID,998.802,VALID,0,VALID,93.2721,VALID,0,VALID,22.8215,VALID,26,VALID,0.287891,
2010-10-16, 03:44:04,VALID,998.806,VALID,0,VALID,93.3103,VALID,0.112286,VALID,22.841,VALID,26,VALID,0.638281,
2010-10-16, 03:45:04,VALID,998.814,VALID,0,VALID,93.3179,VALID,0,VALID,22.8605,VALID,40,VALID,0.855469,